Regional Weather Roundup
Issued by NWS Burlington, VT

Home | Current Version | Previous Version | Text Only | Print | Product List | Glossary On
Versions: 1 2 3 4 5 6 7 8 9 10 11 12 13 14 15 16 17 18 19 20 21 22 23 24 25 26 27 28 29 30 31 32 33 34 35 36 37 38 39 40 41 42 43 44 45 46 47 48 49 50
000
ASUS41 KBTV 062130
RWRBTV
VERMONT REGIONAL WEATHER ROUNDUP
NATIONAL WEATHER SERVICE BURLINGTON VT
500 PM EDT WED MAY 06 2015

NOTE: "FAIR" INDICATES FEW OR NO CLOUDS BELOW 12,000 FEET WITH NO
SIGNIFICANT WEATHER AND/OR OBSTRUCTIONS TO VISIBILITY.

* THESE REPORTS ARE NOT UNDER NWS QUALITY CONTROL AND/OR DO NOT
  REPORT WEATHER SUCH AS PRECIPITATION AND FOG.

VTZ001>019-062200-
_____VERMONT_____


CITY           SKY/WX    TMP DP  RH WIND       PRES   REMARKS
BURLINGTON     PTCLDY    77  29  17 VRB7      30.15F
MONTPELIER     CLEAR     72  30  21 NW7G16    30.21F
MORRISVILLE    CLEAR     74  31  20 N6        30.18F
ST. JOHNSBURY*   N/A     74  29  19 MISG      30.14F
LYNDONVILLE*     N/A     71  22  16 SW12G17   30.19S
MIDDLEBURY*      N/A     75  28  17 CALM      30.17S
RUTLAND*       CLEAR     73  27  17 NE5       30.18F
SPRINGFIELD    CLEAR     77  23  13 NW10G18   30.16S
HIGHGATE*        N/A     75  33  21 W7        30.15F
NEWPORT*         N/A     69  34  28 W12G18    30.17F
BENNINGTON     CLEAR     74  31  20 W5        30.19F
SUTTON*          N/A     70 N/A N/A MISG        N/A
GALLUP MILLS*    N/A     70 N/A N/A MISG        N/A
MT. MANSFIELD*   N/A     59 N/A N/A CALM        N/A

_____LAKE CHAMPLAIN_____


CITY           SKY/WX    TMP DP  RH WIND       PRES   REMARKS
BURTON ISLAND*   N/A     72  32  23 E1          N/A
COLCHESTER RF*   N/A     68  28  22 SW7         N/A
DIAMOND ISL*     N/A     72  32  23 N1          N/A

$$

NYZ007-026>031-035-052-083-062200-
_____NORTHERN NEW YORK_____


CITY           SKY/WX    TMP DP  RH WIND       PRES   REMARKS
PLATTSBURGH    CLEAR     72  30  21 SE9       30.15F
SARANAC LAKE   CLEAR     72  27  18 VRB6      30.18F
MASSENA        CLEAR     75  34  22 W9G16     30.18F
OGDENSBURG*    CLEAR     79  36  21 SW3       30.18F
POTSDAM*       CLEAR     73  41  31 W9        30.18F
STARK FALLS*     N/A     72 N/A N/A NW6         N/A
WATERTOWN      CLEAR     72  38  29 W9        30.20F
FT DRUM        CLEAR     74  36  24 NW9       30.19F
ALBANY         PTCLDY    77  28  16 N5        30.18F
GLENS FALLS    CLEAR     76  31  19 VRB3      30.17F

$$
NHZ002-005-011-062200-
_____NEW HAMPSHIRE_____


CITY           SKY/WX    TMP DP  RH WIND       PRES   REMARKS
LEBANON        CLEAR     79  31  17 NW10      30.15F
KEENE          CLEAR     75  27  16 SE5       30.17S
MT WASHINGTON  PTCLDY    43  25  49 W36G45      N/A
PLYMOUTH         N/A     75  40  27 NW7       30.14S
WHITEFIELD     CLEAR     73  31  21 W12G20    30.15F

$$

_____REGIONAL QUEBEC LOCATIONS_____


CITY           SKY/WX    TMP DP  RH WIND       PRES   REMARKS
MONTREAL       PTCLDY    75  34  22 W20G25    30.13F
QUEBEC CITY    PTCLDY    64  39  39 NW9       30.09F
SHERBROOKE     PTCLDY    72  32  23 W15G28    30.13F

_____REGIONAL ONTARIO LOCATIONS_____


CITY           SKY/WX    TMP DP  RH WIND       PRES   REMARKS
OTTAWA         PTCLDY    75  36  23 W12G17    30.17F

______KEY______
VSB  - VISIBILITY IN MILES
WCI  - WIND CHILL INDEX
HX   - HEAT INDEX
$$
NNNN


USA.gov is the U.S. government's official web portal to all federal, state and local government web resources and services.